"Pseudo-MPEC" for C8AY5Y2

Created 2022 Nov 26 21:22:10 UT using Find_Orb

Click here for an explanation of pseudo-MPECs

 
 Astrometry: 
     C8AY5Y2  C2022 07 20cj$59-suUJi++Af6=Xd@7\$bOM5WDNt4,c(:\Astrometry#o`FTF52
     C8AY5Y2  C2022 07 20EB@59yyYj6^ReeAAvfIqTVZ\pq`?1`s1(9AlTU\j9i/Xd*T*S%_/F52
     C8AY5Y2  C2022 07 20:AYe[xvBqaJebFW!n`n]IL!SZ,,`kp2Oen(redacted;;jy#:?:vF52
     C8AY5Y2  C2022 09 025oDOc'xi\+$hkd3;dFk)nMD8L!REtGAce8ZFj#\O'KAE^6/^[l,.F52
     C8AY5Y2  C2022 09 02kD5FQZAx!^n@w(@A,K3'lYf\B$ieLZ/a:A!lv`;p7C6XOmclick)F52
     C8AY5Y2*1C2022 11 02.06454517 59 44.891+43 39 19.58   ~BEFq 20.62GVNEOCPG96
     C8AY5Y2 1C2022 11 02.07034217 59 44.977+43 39 16.70   ~BEFq 21.55GVNEOCPG96
     C8AY5Y2 1C2022 11 02.07615517 59 45.053+43 39 14.04   ~BEFq 21.07GVNEOCPG96
     C8AY5Y2 1C2022 11 02.08195117 59 45.089+43 39 11.30   ~BEFq 20.80GVNEOCPG96
     C8AY5Y2 KC2022 11 02.15618617 59 46.028+43 38 38.54   ~B24b 21.00GVNEOCPI52
     C8AY5Y2 KC2022 11 02.16384417 59 46.072+43 38 35.63   ~B24b 20.54GVNEOCPI52
     C8AY5Y2 KC2022 11 07.07290718 00 56.502+43 04 28.45   ~B737 20.88GVNEOCPI52
     C8AY5Y2 KC2022 11 07.09398718 00 56.844+43 04 20.17   ~B737 21.06GVNEOCPI52
     C8AY5Y2 KC2022 11 07.11510118 00 57.172+43 04 11.60   ~B737 20.91GVNEOCPI52
     C8AY5Y2 DC2022 11 12=tOP:frs*;^VuGrVmW.jqI`.mQABx$9L.igt`$Wx4-E,catJDls^695
     C8AY5Y2 DC2022 11 12@iA=gV:.[(A,sstZr'C4[r^%d1cdR-`It`YhnYIPuD6I=0)67'JL695
     C8AY5Y2 DC2022 11 12y.+=sI'%VANP[.?)AhYq3o@*#@q^jx7R)TR6+.W49mvXv=V4g%.r695
     C8AY5Y2 |C2022 11 16+2lWJ7Ubi^pIk,Uhereyi81eJa(Kqqlw%d\k19HHXkaN;R5p+-_DH06
     C8AY5Y2 |C2022 11 16r$HY`MQW@N]^d(oXx=V/A_JMNtY[3#-7%fwSq/syF1dN'BMD]-DvH06
     C8AY5Y2 KC2022 11 26WqJ+*_alforUgexplanation3-@*m^$HD+Dq*/7D+Ip0TTos()OiL01
     C8AY5Y2 KC2022 11 26#3_pK!tMFqq0r!pf$@v3OE`kahNjXQXqG)sA1s!(jeTKA%7EygXNL01

Station data:
(695) Kitt Peak  (N31.958395 W111.594670)  US/Arizona. Measurer S. Deen.
   3.5-m f/1.75 reflector + CCD0.9-m f/7.5 reflector + CCD4.0-m
   Ritchey-Chrétien + CCD0.61-m f/3.5 Schmidt + CCD2.3-m f/9 reflector + CCD.
(F52) Pan-STARRS 2, Haleakala  (N20.707382 W156.255910)  US/Hawaii.
   Observers J. Bulger, T. Dukes, T. Lowe, A. Schultz, M. Willman. Measurers
   K. Chambers, S. Chastel, T. de Boer, L. Denneau, J. Fairlamb, H.
   Flewelling, M. Huber, C.-C. Lin, E. Magnier, Y. Ramanjooloo, R. Wainscoat,
   R. Weryk. 1.8-m Ritchey-Chrétien + CCD.
(G96) Mt. Lemmon Survey  (N32.442751 W110.788720)  US/Arizona.  Observers T.
   A. Pruyne, B. M. Africano, E. J. Christensen, G. A. Farneth, D. C. Fuls,
   A. R. Gibbs, A. D. Grauer, H. Gröller, J. A. Johnson, R. A. Kowalski, S.
   M. Larson, G. J. Leonard, D. Rankin, R. L. Seaman, F. C. Shelly, K. W.
   Wierzchoś. 1.5-m reflector + 10K CCD.
(H06) RAS Observatory, Mayhill  (N32.903322 W105.528700)  US/New
   Mexico.  Observer H. Sato. 0.43-m f/6.8 astrograph + CCD + f/4.5 focal
   reducer0.25-m f/3.4 reflector + CCD0.50-m f/6.8 reflector + CCD + f/4.5
   focal reducer0.10-m f/5.0 astrograph + CCD.
(I52) Steward Observatory, Mt. Lemmon Station  (N32.442544 W110.788920)
   US/Arizona.  Observers T. A. Pruyne, B. M. Africano, E. J. Christensen, G.
   A. Farneth, D. C. Fuls, A. R. Gibbs, A. D. Grauer, H. Gröller, J. A.
   Johnson, R. A. Kowalski, S. M. Larson, G. J. Leonard, D. Rankin, R. L.
   Seaman, F. C. Shelly, K. W. Wierzchoś. 1.0-m reflector + CCD.
(L01) Višnjan Observatory, Tičan  (N45.290897 E13.749300)  Croatia.
   Observers K. Korlević, D. Pujagic, V. Dobos. Measurers D. Pujagic, K.
   Korlević. 1.0-m f/2.9 reflector + CCD.

Orbital elements:  C8AY5Y2
   Perihelion 2023 Nov 1.95532 +/- 0.0272 TT = 22:55:39 (JD 2460250.45532)
Epoch 2022 Nov 26.0 TT = JDT 2459909.5                        AutoNEOCP
M 358.49074098 +/- 0.0029           (J2000 ecliptic)
n   0.00442655 +/- 8.27e-6          Peri.  168.96294 +/- 0.0018
a  36.7359981 +/- 0.0458            Node   332.86540 +/- 0.0019
e   0.9438352 +/- 7.4e-5            Incl.   98.90739 +/- 0.0008
P 222.66                   H 14.2   G  0.15   U  4.9
q 2.06326850 +/- 0.000188    Q 71.4087278 +/- 0.0917
From 21 observations 2022 July 20-Nov. 26; mean residual 0".22
Residuals in arcseconds: 
220720 F52  .04+  .08-    221102 G96  .01+  .06+    221112 695  .17+  .09+    
220720 F52  .04+  .03-    221102 G96  .32-  .12-    221112 695  .20+  .10+    
220720 F52  .19+  .00     221102 I52  .48+  .02-    221112 695  .22+  .11+    
220902 F52  .18-  .18-    221102 I52  .03-  .47+    221116 H06  .01-  .20+    
220902 F52  .28-  .09-    221107 I52  .06+  .18-    221116 H06  .08-  .25+    
221102 G96  .31-  .47+    221107 I52  .12+  .04+    221126 L01  .23-  .68-    
221102 G96  .09-  .15+    221107 I52  .00   .01-    221126 L01  .08-  .43-    

Ephemerides (geocentric):
Date (UTC) HH   RA             Dec           delta  r     elong  mag " sig PA
---- --------  ------------   ------------  ------ ------ -----  --- --------
2022 11 26 21  18 08 52.094   +41 22 26.43  4.4196 4.1565  68.3 21.2 .158  74
2022 11 26 22  18 08 53.373   +41 22 17.55  4.4194 4.1561  68.3 21.2 .158  74
2022 11 26 23  18 08 54.652   +41 22 08.69  4.4192 4.1558  68.2 21.2 .159  74
2022 11 27 00  18 08 55.932   +41 21 59.85  4.4191 4.1554  68.2 21.2 .159  74
2022 11 27 01  18 08 57.214   +41 21 51.03  4.4189 4.1551  68.2 21.2 .160  74
2022 11 27 02  18 08 58.496   +41 21 42.22  4.4187 4.1548  68.2 21.2 .160  74
2022 11 27 03  18 08 59.780   +41 21 33.43  4.4185 4.1544  68.2 21.2 .161  74
2022 11 27 04  18 09 01.064   +41 21 24.66  4.4183 4.1541  68.2 21.2 .161  74
2022 11 27 05  18 09 02.349   +41 21 15.91  4.4182 4.1538  68.2 21.2 .162  74
2022 11 27 06  18 09 03.636   +41 21 07.18  4.4180 4.1534  68.2 21.2 .162  74
2022 11 27 07  18 09 04.923   +41 20 58.46  4.4178 4.1531  68.2 21.2 .163  74
2022 11 27 08  18 09 06.211   +41 20 49.76  4.4176 4.1527  68.2 21.2 .163  74
2022 11 27 09  18 09 07.501   +41 20 41.09  4.4174 4.1524  68.1 21.2 .163  74
2022 11 27 10  18 09 08.791   +41 20 32.42  4.4173 4.1521  68.1 21.2 .164  74
2022 11 27 11  18 09 10.083   +41 20 23.78  4.4171 4.1517  68.1 21.2 .164  74
2022 11 27 12  18 09 11.375   +41 20 15.16  4.4169 4.1514  68.1 21.2 .165  74
2022 11 27 13  18 09 12.668   +41 20 06.55  4.4167 4.1511  68.1 21.2 .165  74
2022 11 27 14  18 09 13.963   +41 19 57.96  4.4165 4.1507  68.1 21.2 .166  74
2022 11 27 15  18 09 15.258   +41 19 49.39  4.4164 4.1504  68.1 21.2 .166  74
2022 11 27 16  18 09 16.554   +41 19 40.84  4.4162 4.1500  68.1 21.2 .167  74
2022 11 27 17  18 09 17.852   +41 19 32.31  4.4160 4.1497  68.1 21.2 .167  74
2022 11 27 18  18 09 19.150   +41 19 23.79  4.4158 4.1494  68.1 21.2 .168  74
2022 11 27 19  18 09 20.449   +41 19 15.29  4.4156 4.1490  68.1 21.2 .168  74
2022 11 27 20  18 09 21.750   +41 19 06.81  4.4154 4.1487  68.0 21.2 .169  74
2022 11 27 21  18 09 23.051   +41 18 58.35  4.4153 4.1484  68.0 21.2 .169  74
2022 11 27 22  18 09 24.353   +41 18 49.91  4.4151 4.1480  68.0 21.2 .169  74
2022 11 27 23  18 09 25.656   +41 18 41.48  4.4149 4.1477  68.0 21.2 .170  74
2022 11 28 00  18 09 26.961   +41 18 33.08  4.4147 4.1473  68.0 21.2 .170  74
2022 11 28 01  18 09 28.266   +41 18 24.69  4.4145 4.1470  68.0 21.2 .171  74
2022 11 28 02  18 09 29.572   +41 18 16.32  4.4143 4.1467  68.0 21.2 .171  74
2022 11 28 03  18 09 30.879   +41 18 07.97  4.4142 4.1463  68.0 21.2 .172  74
2022 11 28 04  18 09 32.187   +41 17 59.63  4.4140 4.1460  68.0 21.2 .172  74
2022 11 28 05  18 09 33.496   +41 17 51.32  4.4138 4.1457  68.0 21.2 .173  74
2022 11 28 06  18 09 34.806   +41 17 43.02  4.4136 4.1453  67.9 21.2 .173  74
2022 11 28 07  18 09 36.117   +41 17 34.74  4.4134 4.1450  67.9 21.2 .174  74
2022 11 28 08  18 09 37.429   +41 17 26.48  4.4132 4.1446  67.9 21.2 .174  74
2022 11 28 09  18 09 38.742   +41 17 18.24  4.4131 4.1443  67.9 21.2 .175  74
2022 11 28 10  18 09 40.056   +41 17 10.01  4.4129 4.1440  67.9 21.2 .175  74
2022 11 28 11  18 09 41.371   +41 17 01.81  4.4127 4.1436  67.9 21.2 .175  74
2022 11 28 12  18 09 42.687   +41 16 53.62  4.4125 4.1433  67.9 21.2 .176  74
2022 11 28 13  18 09 44.004   +41 16 45.45  4.4123 4.1430  67.9 21.2 .176  74
2022 11 28 14  18 09 45.322   +41 16 37.30  4.4121 4.1426  67.9 21.2 .177  74
2022 11 28 15  18 09 46.641   +41 16 29.17  4.4119 4.1423  67.9 21.2 .177  74
2022 11 28 16  18 09 47.961   +41 16 21.05  4.4118 4.1419  67.9 21.2 .178  74
2022 11 28 17  18 09 49.281   +41 16 12.96  4.4116 4.1416  67.8 21.2 .178  74
2022 11 28 18  18 09 50.603   +41 16 04.88  4.4114 4.1413  67.8 21.2 .179  74
2022 11 28 19  18 09 51.926   +41 15 56.82  4.4112 4.1409  67.8 21.2 .179  74
2022 11 28 20  18 09 53.249   +41 15 48.78  4.4110 4.1406  67.8 21.2 .180  74